BREEZE-KM R/B, 44909

Orbit data source: Space-Track

BREEZE-KM R/B, 44909 is space debris in LEO originally from a launch on Thu, 26 Dec 2019 UTC via an ROKOT launch vehicle from the Plesetsk Missile And Space Complex (PKMTR). Debris objects in space refer to the collection of defunct objects orbiting the Earth. Examples of debris include non-operational satellites, rocket bodies, and fragments generated from explosions, collisions, or faulty payload assembly.

Loading next visibility...
Identifier
44909, 2019-096E
Orbit
LEO
Country
Flag of CISCIS
Related business
Manufacturer
SNIU/RESH
Mission
Operational spacecraft
Bus & Motor
YUBILYENIY, Unknown motor
Mass
~2,420 kg wet, ~50 kg dry
Launch date (UTC)
2019-12-26 (6 years ago)
Launch vehicle
ROKOT
Launch site
Plesetsk Missile And Space Complex (PKMTR)
Object type
Payload
Rocket body
Debris
Shape & HBR
Unknown
Radar Cross Section
Large (>1 m²)

Expand to show TLE details & history
Last TLE update: 16 hours ago

TLE from 16 hours ago
0 BREEZE-KM R/B
1 44909U 19096E   25310.97290278  .00000010  00000-0  20364-5 0  9997
2 44909  82.5180 127.3788 0216658 304.0881  53.9825 12.79745226273920
Epoch: 2025-11-06T23:20Z
TLE epoch observation values (Epoch: 2025-11-06T23:20:58.800Z)
Latitude
-0.00002°
Longitude
90.71025°
Altitude
1,249.288 km
Speed
7.275 km/s
True Right ascension
08h 29m 30s
True Declination
0° 00' 00"
Sunlit
Object was in daylight at epoch
Visualization orbit readout
Latitude
Unknown
Longitude
Unknown
Altitude
Unknown
Speed
Unknown
Apparent Right ascension
Unknown
Apparent Declination
Unknown
Sunlit
N/A
Visualization observer readout
Local Sidereal Time
11:53:40
Azimuth
Unknown
Elevation
Unknown
Doppler factor
Unknown
Orbital elements
Apogee altitude
1,507.006 km
Perigee altitude
1,172.576 km
Semi-major axis
7,717.928 km
Eccentricity
0.02167
Inclination
82.518°
RAAN
127.3788°
Arg. of periapsis
304.0881°
True anomaly
56.02266°
Mean anomaly
53.9825°
Eccentric anomaly
54.99935°
Mean motion
3.20105 °/min
Orbital period
112.46 mins
BSTAR
0.0000020364
Loading maneuver chart data...
Computing Atmospheric mass density...
Loading historical data...
Loading historical data...
Loading historical data...
Loading historical data...
Loading historical data...
Loading historical data...
Loading historical data...

Documentation

Showing up to 5 results
|